Flag for Canada Weather past 2 weeks in Brantford, Ontario, Canada

Now
70 °F

Broken clouds.


Feels Like: 70 °F
Forecast: 54 / 74 °F
Wind: 8 mph from Southwest

Location: Hamilton Airport

Current Time: Aug 4, 2015 at 8:13:42 PM

Latest Report: Aug 4, 2015 at 7:00 PM


Visibility: 15 mi

Pressure: 29.89 "Hg

Humidity: 78%

Dew point: 63 °F

Location of BrantfordLocation

Historic Weather in Brantford — Graph

°F

Brantford temperature yesterday

Maximum temperature yesterday: 77 °F (at 2:00 PM)
Minimum temperature yesterday: 61 °F (at 4:00 AM)
Average temperature yesterday: 68 °F

Past Weeks' High & Low Weather Summary

 TemperatureHumidityPressure
High88 °F (Jul 28, 4:00 PM)100% (Jul 26, 4:00 AM)30.05 "Hg (Jul 26, 4:00 AM)
Low54 °F (Jul 23, 3:00 AM)34% (Jul 24, 3:00 PM)29.64 "Hg (Aug 2, 10:00 PM)
Average71 °F69%29.89 "Hg
* Reported Jul 20 6:00 PM — Aug 4 6:00 PM, Brantford, Weather by CustomWeather, © 2015

Note: Actual official high and low records may vary slightly from our data, if they occured in-between our weather recording intervals... More about our weather records

Advertising

Brantford weather history for previous 24 hours

 ConditionsComfort  
Time TempWeatherWind HumidityBarometerVisibility
6:00 PM
Tue, Aug 4
68 °FBroken clouds.12 mph78%29.88 "Hg15 mi
5:00 PM64 °FBroken clouds.9 mph88%29.90 "Hg15 mi
4:00 PM63 °FThunderstorms. Overcast.10 mph88%29.89 "Hg2 mi
3:00 PM75 °FPartly sunny.18 mph50%29.87 "Hg15 mi
2:00 PM73 °FBroken clouds.14 mph57%29.88 "Hg15 mi
1:00 PM75 °FBroken clouds.17 mph54%29.89 "Hg15 mi
12:00 PM72 °FPartly sunny.13 mph61%29.90 "Hg15 mi
11:00 AM72 °FBroken clouds.14 mph69%29.90 "Hg15 mi
10:00 AM68 °FPassing clouds.6 mph78%29.90 "Hg15 mi
9:00 AM66 °FPassing clouds.2 mph83%29.89 "Hg15 mi
8:00 AM64 °FScattered clouds.No wind88%29.89 "Hg15 mi
7:00 AM61 °FPassing clouds.No wind94%29.86 "Hg15 mi
6:00 AM61 °FPassing clouds.5 mph94%29.84 "Hg15 mi
5:00 AM61 °FPassing clouds.5 mph100%29.83 "Hg15 mi
4:00 AM63 °FPartly cloudy.6 mph94%29.83 "Hg15 mi
3:00 AM63 °FPassing clouds.7 mph94%29.82 "Hg15 mi
2:00 AM63 °FPassing clouds.6 mph94%29.81 "Hg15 mi
1:00 AM61 °FPassing clouds.5 mph100%29.80 "Hg15 mi
12:00 AM63 °FPassing clouds.5 mph94%29.80 "Hg15 mi
11:00 PM
Mon, Aug 3
63 °FPassing clouds.5 mph100%29.81 "Hg15 mi
10:00 PM63 °FMostly cloudy.6 mph100%29.81 "Hg15 mi
9:00 PM63 °FMostly cloudy.6 mph94%29.80 "Hg15 mi
8:00 PM63 °FThunderstorms. Cloudy.9 mph83%29.80 "Hg4 mi
Weather by CustomWeather, © 2015

See weather overviewHow to use our weather pages